Wright-Patt AFB, OH

8:27 PM EDT on October 17, 2017 (GMT -0400)
Wright-Patterson Air Force Base

Weather History for KFFO - January, 2014

Change the Weather History Date:

Monday, January 13, 2014

  Actual Average Record
Temperature  
Mean Temperature 47 °F -  
Max Temperature 52 °F 33 °F 66 °F (2005)
Min Temperature 42 °F 17 °F -5 °F (1997)
Degree Days  
Heating Degree Days 18    
Moisture  
Dew Point 40 °F    
Average Humidity 77    
Maximum Humidity 100    
Minimum Humidity 50    
Precipitation  
Precipitation 0.08 in - - ()
Sea Level Pressure  
Sea Level Pressure 29.75 in    
Wind  
Wind Speed 14 mph (SSW)    
Max Wind Speed 22 mph    
Max Gust Speed 32 mph    
Visibility 9 miles    
Events Rain    
Averages and records for this station are not official NWS values.
T = Trace of Precipitation, MM = Missing Value Source: NWS Daily Summary

Daily Weather History Graph

Daily Weather History Graph

Search for Another Location

Airport or City:

Trip Planner

Search our weather history database for the weather conditions in past years. The results will help you decide how hot, cold, wet, or windy it might be!

Date:

Astronomy

Jan. 13, 2014 Rise Set
Actual Time 7:56 AM EST 5:33 PM EST
Civil Twilight 7:26 AM EST 6:03 PM EST
Nautical Twilight 6:53 AM EST 6:36 PM EST
Astronomical Twilight 6:20 AM EST 7:09 PM EST
Moon 3:48 PM EST (1/13) 5:44 AM EST (1/13)
Length of Visible Light 10h 36m
Length of Day
9h 37m
Waxing Gibbous, 95% of the Moon is Illuminated
Jan 13
Waxing Gibbous
Jan 15
Full
Jan 24
Last Quarter
Jan 30
New
Feb 6
First Quarter

Hourly Weather History & Observations

Time (EST) Temp. Windchill Dew Point Humidity Pressure Visibility Wind Dir Wind Speed Gust Speed Precip Events Conditions
12:58 AM 43.0 °F 35.7 °F 28.6 °F 57% 29.88 in 10.0 mi South 15.0 mph - N/A   Clear
1:58 AM 42.8 °F 35.8 °F 29.1 °F 58% 29.88 in 10.0 mi South 13.8 mph - N/A   Clear
2:58 AM 43.5 °F 37.1 °F 29.3 °F 57% 29.87 in 10.0 mi South 12.7 mph - N/A   Clear
3:58 AM 43.5 °F 36.7 °F 29.5 °F 58% 29.86 in 10.0 mi South 13.8 mph - N/A   Clear
4:58 AM 44.6 °F 37.8 °F 29.5 °F 55% 29.85 in 10.0 mi South 15.0 mph - N/A   Clear
5:58 AM 45.3 °F 38.4 °F 30.4 °F 56% 29.83 in 10.0 mi South 16.1 mph - N/A   Clear
6:58 AM 45.5 °F 38.6 °F 30.9 °F 57% 29.81 in 10.0 mi South 16.1 mph - N/A   Partly Cloudy
7:58 AM 44.4 °F 38.2 °F 31.8 °F 61% 29.78 in 10.0 mi South 12.7 mph - N/A   Scattered Clouds
8:58 AM 45.1 °F 38.4 °F 32.5 °F 61% 29.80 in 10.0 mi South 15.0 mph - N/A   Scattered Clouds
9:58 AM 48.4 °F - 32.9 °F 55% 29.78 in 10.0 mi South 19.6 mph 25.3 mph N/A   Mostly Cloudy
10:24 AM 51.8 °F - 33.8 °F 50% 29.74 in 10.0 mi SSW 21.9 mph 32.2 mph N/A   Scattered Clouds
10:58 AM 51.1 °F - 34.2 °F 52% 29.76 in 10.0 mi South 21.9 mph 29.9 mph N/A   Mostly Cloudy
11:58 AM 51.1 °F - 36.1 °F 57% 29.75 in 10.0 mi SSW 18.4 mph - N/A   Scattered Clouds
12:58 PM 52.9 °F - 38.5 °F 58% 29.73 in 10.0 mi SSW 18.4 mph - N/A   Overcast
1:58 PM 52.3 °F - 39.7 °F 62% 29.72 in 10.0 mi SSW 19.6 mph 25.3 mph N/A   Overcast
2:18 PM 51.8 °F - 39.2 °F 62% 29.68 in 10.0 mi SSW 17.3 mph 27.6 mph N/A   Overcast
2:58 PM 51.4 °F - 40.6 °F 67% 29.71 in 10.0 mi South 15.0 mph - N/A   Overcast
3:58 PM 50.5 °F - 42.4 °F 74% 29.72 in 10.0 mi SSW 18.4 mph - 0.00 in   Light Drizzle
4:38 PM 48.2 °F - 44.6 °F 87% 29.70 in 10.0 mi SSW 16.1 mph - N/A   Light Drizzle
4:59 PM 47.8 °F - 45.3 °F 91% 29.71 in 9.0 mi SSW 15.0 mph - 0.02 in Rain Light Rain
5:18 PM 48.2 °F - 44.6 °F 87% 29.70 in 10.0 mi South 12.7 mph - N/A   Overcast
5:48 PM 48.2 °F - 46.4 °F 93% 29.69 in 7.0 mi South 13.8 mph - N/A   Light Drizzle
5:58 PM 47.7 °F - 45.7 °F 93% 29.71 in 7.0 mi SSW 16.1 mph - 0.01 in Rain Light Rain
6:28 PM 48.2 °F - 46.4 °F 93% 29.69 in 7.0 mi SSW 15.0 mph - N/A   Light Drizzle
6:48 PM 48.2 °F - 46.4 °F 93% 29.70 in 7.0 mi SSW 11.5 mph - N/A Rain Light Rain
6:58 PM 47.3 °F - 45.7 °F 94% 29.72 in 5.0 mi SSW 10.4 mph - 0.02 in Rain Light Rain
7:38 PM 48.2 °F - 46.4 °F 93% 29.71 in 4.0 mi SW 11.5 mph - N/A   Light Drizzle
7:58 PM 47.3 °F - 46.2 °F 96% 29.74 in 4.0 mi SW 12.7 mph - 0.03 in   Light Drizzle
8:28 PM 46.4 °F 41.9 °F 46.4 °F 100% 29.72 in 10.0 mi SW 9.2 mph - N/A   Overcast
8:48 PM 46.4 °F 41.5 °F 46.4 °F 100% 29.72 in 10.0 mi SW 10.4 mph - N/A   Overcast
8:58 PM 46.6 °F - 45.5 °F 96% 29.73 in 10.0 mi WSW 10.4 mph - 0.00 in   Overcast
9:48 PM 44.6 °F 40.2 °F 44.6 °F 100% 29.71 in 10.0 mi SW 8.1 mph - N/A   Mostly Cloudy
9:58 PM 44.6 °F 40.2 °F 43.5 °F 96% 29.74 in 10.0 mi SW 8.1 mph - N/A   Mostly Cloudy
10:02 PM 44.6 °F 41.4 °F 42.8 °F 93% 29.72 in 9.0 mi WSW 5.8 mph - N/A   Mostly Cloudy
10:38 PM 44.6 °F 40.7 °F 42.8 °F 93% 29.73 in 10.0 mi SW 6.9 mph - N/A   Mostly Cloudy
10:58 PM 43.2 °F 39.0 °F 42.1 °F 96% 29.76 in 7.0 mi WSW 6.9 mph - N/A   Mostly Cloudy
11:08 PM 44.6 °F 40.2 °F 42.8 °F 93% 29.74 in 10.0 mi WSW 8.1 mph - N/A   Scattered Clouds
11:58 PM 44.4 °F 39.5 °F 42.1 °F 91% 29.76 in 10.0 mi West 9.2 mph - N/A   Mostly Cloudy